Regional Weather Roundup
Issued by NWS

Home | Current Version | Previous Version | Text Only | Print | Product List | Glossary Off
Versions: 1 2 3 4 5 6 7 8 9 10 11 12 13 14 15 16 17 18 19 20 21 22 23 24 25 26 27 28 29 30 31 32 33 34 35 36 37 38 39 40 41 42 43 44 45 46 47 48 49 50

000
ASUS43 KLOT 041408
RWRIL

ILLINOIS REGIONAL WEATHER ROUNDUP
NATIONAL WEATHER SERVICE CHICAGO/ROMEOVILLE IL
900 AM CDT FRI SEP 04 2015

NOTE: "FAIR" INDICATES FEW OR NO CLOUDS BELOW 12,000 FEET WITH NO
SIGNIFICANT WEATHER AND/OR OBSTRUCTIONS TO VISIBILITY.

* THESE STATIONS ARE NOT UNDER NWS QUALITY CONTROL. THEY ALSO MAY NOT
  REPORT WEATHER SUCH AS PRECIPITATION OR FOG.

ILZ001-002-007-009-015-016-024-041500-
NORTHWEST ILLINOIS

CITY           SKY/WX    TMP DP  RH WIND       PRES   REMARKS
MOLINE         MOSUNNY   78  69  73 CALM      30.00R HX  80
STERLING*      SUNNY     75  72  88 SE5       29.99R
SAVANNA*       SUNNY     74  68  82 E3        30.01R
$$

ILZ003-004-008-010-011-017-018-041500-
NORTH CENTRAL ILLINOIS

CITY           SKY/WX    TMP DP  RH WIND       PRES   REMARKS
ROCKFORD       MOSUNNY   74  66  76 SE6       30.03R
FREEPORT*      PTSUNNY   71  68  90 E6        30.03S
ROCHELLE*      SUNNY     73  69  86 SE5       30.02S
DE KALB*       SUNNY     74  68  83 SE7       30.04R
PERU*          SUNNY     75  69  82 CALM      30.02R
$$

ILZ005-006-012>014-019>023-041500-
NORTHEAST ILLINOIS

CITY           SKY/WX    TMP DP  RH WIND       PRES   REMARKS
CHICAGO-OHARE  MOSUNNY   72  66  81 NE6       30.02R
CHICAGO-MIDWAY MOSUNNY   75  66  73 E7        30.01R
AURORA         MOSUNNY   75  68  78 E6        30.02S
LANSING*       MOSUNNY   74  68  80 NE3       30.02S
JOLIET*        SUNNY     76  70  81 E3        30.02R
WAUKEGAN       CLOUDY    65  64  97 NE5       30.03R FOG
DUPAGE AIRPORT PTSUNNY   73  66  78 E5        30.02R
KANKAKEE*      SUNNY     75  69  80 SE6       30.02S
WHEELING       CLOUDY    69  65  86 N6        30.04R
MORRIS*        SUNNY     74  69  85 SE7       30.01R
ROMEOVILLE*    SUNNY     75  67  76 SE5       30.02S
NORTHERLY ISL    N/A     72  67  84 N3          N/A
$$

LMZ740>746-041500-
SOUTHERN LAKE MICHIGAN

STATION/POSITION SKY/WX   TEMP    WIND        PRES    VSBY  WAVE
                          AIR SEA DIR/SP/G                  HT/PER
                          (F)     (DEG/KT/KT) (MB)    (MI)  (FT/S)
SOUTHERN BUOY              67 71  290/  6/  8 1015.9R         1/ 4
WILMETTE HARBOR            68 70  190/  6/  8   N/A           1/ 4
HARRISON CRIB              69     360/  5/  6   N/A
BURNHAM HARBOR             71      10/  2/  5   N/A
CALUMET HARBOR             71     360/  4/  5   N/A
BURNS HARBOR               72      20/  3/  3 1016.9
MICHIGAN CITY              71     360/  1/  1   N/A
MICHIGAN CITY 6N           73 73   CALM  /  2   N/A           1/ 4
ST. JOSEPH                 71 74  340/  2/  4   N/A           1/ 4
$$

ILZ025>027-034>036-040-047-049-050-058-095>099-041500-
WEST-CENTRAL ILLINOIS

CITY           SKY/WX    TMP DP  RH WIND       PRES   REMARKS
QUINCY         SUNNY     80  70  71 SW6       30.02R HX  83
GALESBURG*     MOSUNNY   78  71  78 CALM      30.01R HX  81
MACOMB*        SUNNY     78  70  75 SW3       30.03R HX  81
JACKSONVILLE*  SUNNY     83  71  67 SW6       30.02R HX  88
PITTSFIELD*    SUNNY     82  70  66 SW6       30.03R HX  86
$$

ILZ028>032-037-038-041>044-048-051>054-059>061-041500-
CENTRAL ILLINOIS

CITY           SKY/WX    TMP DP  RH WIND       PRES   REMARKS
PONTIAC        PTSUNNY   78  72  80 SW3       30.02R HX  81
BLOOMINGTON    SUNNY     79  71  76 SW5       30.03S HX  82
DECATUR        SUNNY     81  70  69 W5        30.03R HX  84
PEORIA         SUNNY     79  70  74 CALM      30.01R HX  82
LACON*         SUNNY     77  71  79 CALM      30.00R
LINCOLN*       SUNNY     81  69  66 CALM      30.00S HX  84
SPRINGFIELD    SUNNY     82  70  66 W3        30.02R HX  86
TAYLORVILLE    MOSUNNY   79  70  73 SW3       30.02S HX  81
$$

ILZ033-039-045-046-055>057-062-063-041500-
EAST-CENTRAL ILLINOIS

CITY           SKY/WX    TMP DP  RH WIND       PRES   REMARKS
CHAMPAIGN      SUNNY     78  70  76 CALM      30.04R HX  80
RANTOUL*       SUNNY     80  71  75 SW6       30.02S HX  83
MATTOON          N/A     81  69  67 W3        30.03S HX  84
PARIS*         PTSUNNY   77  72  84 CALM      30.05S
$$

ILZ079-100>102-041500-
SOUTHWEST ILLINOIS

CITY           SKY/WX    TMP DP  RH WIND       PRES   REMARKS
ALTON          SUNNY     77  72  83 SE6       30.03R
BELLEVILLE     SUNNY     78  76  92 CALM      30.02R HX  81
CAHOKIA*       SUNNY     80  71  74 CALM      30.03R HX  84
SPARTA*        SUNNY     79  72  79 CALM      30.05R HX  82
$$

ILZ064>066-069>071-074>076-080>082-084>086-088>090-092>094-041500-
SOUTH-CENTRAL ILLINOIS

CITY           SKY/WX    TMP DP  RH WIND       PRES   REMARKS
CARBONDALE     SUNNY     78  72  81 CALM      30.04R HX  80
CAIRO*         SUNNY     77  76  95 CALM      30.04S
EFFINGHAM*     SUNNY     80  69  70 CALM      30.05S HX  82
MARION         MOSUNNY   81  72  74 CALM      30.05R HX  84
MT. VERNON     SUNNY     79  70  73 S3        30.05R HX  81
CENTRALIA*     SUNNY     80  73  76 S3        30.03S HX  85
SALEM*         SUNNY     81  70  70 CALM      30.03S HX  84
METROPOLIS*    SUNNY     79  75  87 CALM      30.04S HX  82
$$

ILZ067-068-072-073-078-083-087-091-041500-
SOUTHEAST ILLINOIS

CITY           SKY/WX    TMP DP  RH WIND       PRES   REMARKS
LAWRENCEVILLE  MOSUNNY   80  69  69 CALM      30.04S HX  83
FLORA*         SUNNY     79  69  71 SW3       30.04S HX  82
FAIRFIELD*     SUNNY     79  71  77 CALM      30.03S HX  82
HARRISBURG*    SUNNY     78  71  78 CALM      30.04S HX  81
ROBINSON*      SUNNY     79  71  77 CALM      30.05R HX  81
CARMI*         SUNNY     78  73  82 CALM      30.04S HX  81
$$

ABBREVIATIONS USED IN REMARKS
   TC - TEMPERATURE IN CELSIUS
  WCI - WIND CHILL INDEX
   HX - HEAT INDEX
  VSB - VISIBILITY
$$




USA.gov is the U.S. government's official web portal to all federal, state and local government web resources and services.